User: anonymous   Login
Location: Caltech
(34.1382°N, 118.1253°W)
Time: 13:19:25
(UTC-08:00)
Language:

AO-27 - Orbit

View from above orbital plane
View from above orbital plane
View from above satellite
View from above satellite

Ground track
Ground track

The orbit data is extracted from the following two-line orbital elements,

1 22825U 93061C   17017.12700391  .00000001  00000-0  17928-4 0  9999
2 22825  98.7913 341.0289 0009329  56.5956 303.6117 14.29982986215810
Epoch (UTC): 17 January 2017 03:02:53
Eccentricity: 0.0009329
inclination: 98.7913°
perigee height: 785 km
apogee height: 798 km
right ascension of ascending node: 341.0289°
argument of perigee: 56.5956°
revolutions per day: 14.29982986
mean anomaly at epoch: 303.6117°
orbit number at epoch: 21581

The dashed part of the orbit path shows where the satellite is in the earth's shadow,  

DLR